Location: ??
(35.5052°N, 139.7262°E)
Time: 01:15:50
(UTC+00:00)

OAO 1 - Pass Details

Date: 01 November 2021
Orbit: 773 x 784 km, 35.0° (Epoch: 01 December)

Event Time Altitude Azimuth Distance (km) Brightness Sun altitude
Rises 10:19:23 0° 276° (W) 3,248 8.9 -31.6°
Reaches altitude 10° 10:22:12 10° 265° (W) 2,320 7.8 -32.2°
Enters shadow 10:26:15 26° 217° (SW) 1,483 6.2 -33.0°
